sat.trackr.live / text

‹ back to catalog

STARS-AO

NORAD 43679 · 2018-084J

PAYLOAD ACTIVE UNKNOWN

§ Identity

Operator
Country
JPN
Launch date
2018-10-29
Launch site
TANSC
Launch vehicle
Mass (kg)
RCS (m²)

External: N2YO · Heavens-Above · Gunter

§ Orbital elements

Epoch: 2026-05-25T02:49:42.502656Z

Period
94.94 min
Inclination
98.0533°
Eccentricity
0.0001045
Mean motion
15.16753900 rev/d
Perigee alt
514.9 km
Apogee alt
516.4 km
Semi-major
6,893.8 km
B*
2.8575e-4
RAAN
357.6696°
Arg perigee
202.0479°
Mean anomaly
158.0707°
Rev number
41,397

§ Raw data

STARS-AO1 43679U 18084J   26145.11785304  .00005532  00000+0  28575-3 0  99912 43679  98.0533 357.6696 0001045 202.0479 158.0707 15.16753900413974

JSON: /api/v1/satellites/43679 · /tle

For live sub-satellite position, see the globe view (requires WebGL).

§ Visibility from observer

Set your observer location to see the next 7 days of passes ≥ 10°. The values pass through the URL so the page stays shareable.

No JS? Fill the form by hand. The geolocation button needs JavaScript.

§ Radio — SatNOGS DB

ModeDescriptionDownlinkUplink
CW CW Beacon 437.350 MHz
FM FM 437.400 MHz
GMSK High Speed 115kbpsGMSK 437.200 MHz

3 transmitters · refreshed weekly from db.satnogs.org